Погода в Оахака-де-Хуарес

Мексика     17°04′32″N   96°43′37″W
темп.,
°C
ветер,
м/с
пор.,
м/с
влажн.,
%
обл.,
%
осадки,
мм/ч
давл.,
гПа
погр.,
м
24 июля, сб
сб2401:00+13ссз22744 0.0 102231
04:00+12ссз33805 0.0 102238
07:00+11ссз33765 0.0 102241
10:00+18ссз23585 0.0 1021471
13:00+23ююз125036 0.0 10181354
16:00+24ююв1249100 0.1 10151683
19:00+21юв2262100 0.3 101552
22:00+16св1174100 0.0 101814
25 июля, вс
вс2501:00+14ссз228613 0.0 101923
04:00+13ссз228846 0.0 101931
07:00+12ссз228872 0.0 101929
10:00+18ссз226568 0.0 1018465
13:00+24ю1240100 0.0 10151438
16:00+25ююв3339100 0.0 10121944
19:00+21юв4561100 0.0 1013186
22:00+16св218099 0.0 101716
26 июля, пн
пн2601:00+14с228583 0.0 101922
04:00+13ссз228458 0.0 101730
07:00+12сз2282100 0.0 101831
10:00+18ссз125999 0.0 1017443
13:00+23ююв124890 0.0 10151266
16:00+24всв225099 0.1 10121430
19:00+20сз116697 0.2 101313
22:00+17св227697 0.1 101618
27 июля, вт
вт2701:00+14с2287100 0.1 101824
04:00+13ссз22875 0.0 101730
07:00+12ссз33874 0.0 101838
10:00+19ссз12605 0.0 1018496
13:00+23ю12445 0.0 10151362
16:00+25ююв334130 0.0 10121855
19:00+21вюв3463100 0.0 1013128
22:00+17всв22805 0.6 101615
28 июля, ср
ср2801:00+14с228620 0.8 101830
04:00+13ссз22905 0.0 101733
07:00+12ссз23915 0.0 101836
10:00+18с12675 0.0 1018568
13:00+23ю23495 0.0 10151478
16:00+25юв334596 0.0 10111832
19:00+20в2369100 0.8 101268
22:00+16ссв2285100 1.9 101621